Weather reports worldwide

Advertisment
Oviedo, Spain (8015): temperature & dewpoint: 17.08.2019 14:00:00 - 23.08.2019 14:00:00 (CEST)Oviedo, Spain (8015): wind speed: 17.08.2019 14:00:00 - 23.08.2019 14:00:00 (CEST)Oviedo, Spain (8015): wind direction: 17.08.2019 14:00:00 - 23.08.2019 14:00:00 (CEST)Oviedo, Spain (8015): reduced air pressure: 17.08.2019 14:00:00 - 23.08.2019 14:00:00 (CEST)Oviedo, Spain (8015): visibility: 17.08.2019 14:00:00 - 23.08.2019 14:00:00 (CEST)Oviedo, Spain (8015): precipitation: 17.08.2019 14:00:00 - 23.08.2019 14:00:00 (CEST)
Date & Time tt [°C] td [°C] ff [km/h] ff [kn] dd ppp [hPa] vv [km] rr [mm]
23.08.2019 14:00:00 - - - - - - - -
23.08.2019 13:00:00 29,4 15,5 2 1 S 1016,5 20 0,0
23.08.2019 12:00:00 26,2 15,6 2 1 S 1017,1 19 0,0
23.08.2019 11:00:00 22,2 13,8 4 2 S 1017,9 20 -
23.08.2019 10:00:00 18,5 11,8 9 5 S 1018,4 20 0,0
23.08.2019 09:00:00 16,1 12,3 8 4 S 1018,9 20 0,0
23.08.2019 08:00:00 14,9 12,9 9 5 SSE 1019,2 20 -
23.08.2019 07:00:00 15,3 13,8 4 2 SSE 1019,2 16 0,0
23.08.2019 06:00:00 15,8 14,3 8 4 S 1019,4 19 0,0
23.08.2019 05:00:00 16,1 15,1 5 3 SSE 1019,7 12 -
23.08.2019 04:00:00 16,3 15,2 5 3 SSE 1019,9 15 0,0
23.08.2019 03:00:00 16,7 15,2 4 2 S 1020,2 19 0,0
23.08.2019 02:00:00 17,3 15,1 4 2 S 1020,4 20 -
23.08.2019 01:00:00 17,9 14,8 2 1 WSW 1020,6 20 0,0
23.08.2019 00:00:00 18,8 14,9 4 2 N 1020,5 20 0,0
22.08.2019 23:00:00 20,1 15,3 4 2 SE 1020,4 20 -
22.08.2019 22:00:00 21,3 15,6 5 3 ENE 1019,9 20 0,0
22.08.2019 21:00:00 22,6 14,7 8 4 ENE 1019,4 13 0,0
22.08.2019 20:00:00 23,8 13,6 9 5 ENE 1019,2 20 -
22.08.2019 19:00:00 25,4 14,5 11 6 NE 1019,3 20 0,0
22.08.2019 18:00:00 26,0 15,1 11 6 NE 1019,5 20 0,0
22.08.2019 17:00:00 26,7 14,8 11 6 NNE 1019,5 20 -
22.08.2019 16:00:00 26,9 14,0 8 4 ENE 1019,8 20 0,0
22.08.2019 15:00:00 26,8 13,9 11 6 ESE 1020,3 20 0,0
22.08.2019 14:00:00 25,5 12,3 15 8 E 1021,2 15 -
22.08.2019 13:00:00 23,8 11,1 13 7 E 1022,0 20 0,0
22.08.2019 12:00:00 21,1 15,0 4 2 E 1022,8 20 0,0
22.08.2019 11:00:00 18,7 15,8 5 3 SE 1023,1 15 -
22.08.2019 10:00:00 16,2 15,4 2 1 S 1023,5 8 0,0
22.08.2019 09:00:00 15,7 15,4 4 2 SSE 1023,5 0,4 0,0
22.08.2019 08:00:00 15,4 15,1 2 1 S 1023,3 0,2 -
22.08.2019 07:00:00 15,4 15,1 2 1 S 1022,9 0,2 0,0
22.08.2019 06:00:00 15,2 14,9 5 3 SSW 1022,9 0,2 0,0
22.08.2019 05:00:00 15,2 14,6 4 2 SSE 1022,7 4,9 -
22.08.2019 04:00:00 15,6 14,6 5 3 E 1022,6 14 0,0
22.08.2019 03:00:00 16,2 14,7 5 3 ESE 1022,8 15 0,0
22.08.2019 02:00:00 17,0 15,2 9 5 E 1023,1 18 -
22.08.2019 01:00:00 17,5 15,5 8 4 ENE 1023,3 18 0,0
22.08.2019 00:00:00 18,4 15,6 5 3 E 1023,4 19 0,0
21.08.2019 23:00:00 18,6 15,7 4 2 ESE 1023,6 20 -
21.08.2019 22:00:00 19,0 15,5 8 4 NE 1023,3 20 0,0
21.08.2019 21:00:00 19,7 15,8 13 7 NE 1022,5 20 0,0
21.08.2019 20:00:00 20,3 15,3 13 7 NE 1022,1 20 -
21.08.2019 19:00:00 20,9 15,4 15 8 NE 1021,7 20 0,0
21.08.2019 18:00:00 21,5 15,3 16 9 NE 1021,5 20 0,0
21.08.2019 17:00:00 23,3 15,6 16 9 NE 1021,2 18 -
21.08.2019 16:00:00 23,5 15,0 11 6 NE 1021,2 20 0,0
21.08.2019 15:00:00 22,9 13,9 8 4 NNE 1021,5 20 0,0
21.08.2019 14:00:00 22,8 14,1 9 5 N 1021,6 20 -
21.08.2019 13:00:00 21,9 13,8 9 5 ESE 1022,1 20 0,0
21.08.2019 12:00:00 20,6 13,3 5 3 E 1022,7 20 0,0
21.08.2019 11:00:00 17,2 13,5 4 2 NNW 1022,9 20 -
21.08.2019 10:00:00 15,9 13,6 2 1 S 1022,9 0,2 0,0
21.08.2019 09:00:00 13,4 12,5 2 1 WSW 1023,3 3,6 0,0
21.08.2019 08:00:00 13,1 12,5 5 3 WNW 1023,1 10 -
21.08.2019 07:00:00 13,3 12,5 4 2 NW 1022,9 16 0,0
21.08.2019 06:00:00 13,3 12,5 4 2 NW 1023,0 16 0,0
21.08.2019 05:00:00 13,7 12,3 4 2 E 1023,3 20 -
21.08.2019 04:00:00 14,4 12,4 5 3 SE 1023,4 20 0,0
21.08.2019 03:00:00 14,7 12,4 8 4 ESE 1023,8 20 0,0
21.08.2019 02:00:00 15,3 12,4 9 5 E 1024,0 20 -
21.08.2019 01:00:00 15,8 12,7 11 6 E 1024,2 20 0,0
21.08.2019 00:00:00 16,2 13,1 8 4 E 1024,2 20 0,0
20.08.2019 23:00:00 17,0 13,1 9 5 E 1024,3 20 -
20.08.2019 22:00:00 17,7 13,0 8 4 E 1023,7 20 0,0
20.08.2019 21:00:00 18,6 12,8 11 6 ENE 1023,4 20 0,0
20.08.2019 20:00:00 19,6 13,1 13 7 E 1022,9 20 -
20.08.2019 19:00:00 20,1 13,8 13 7 E 1022,8 20 0,0
20.08.2019 18:00:00 21,2 14,1 11 6 E 1022,6 20 0,0
20.08.2019 17:00:00 21,4 14,1 13 7 ENE 1022,9 20 -
20.08.2019 16:00:00 22,5 13,6 9 5 E 1023,2 20 0,0
20.08.2019 15:00:00 21,4 14,3 11 6 E 1023,8 20 0,0
20.08.2019 14:00:00 20,0 14,6 9 5 ENE 1024,4 20 -
20.08.2019 13:00:00 17,7 15,3 4 2 NE 1025,1 19 0,0
20.08.2019 12:00:00 16,7 15,6 4 2 S 1025,5 19 0,0
20.08.2019 11:00:00 15,3 14,7 8 4 E 1025,1 12 -
20.08.2019 10:00:00 14,8 14,3 8 4 E 1025,0 3,1 1,0
20.08.2019 09:00:00 14,6 14,3 4 2 ESE 1024,4 4,5 1,0
20.08.2019 08:00:00 14,2 13,9 2 1 WNW 1023,9 15 -
20.08.2019 07:00:00 14,3 14,0 4 2 SSE 1023,1 0,7 0,0
20.08.2019 06:00:00 14,1 13,8 4 2 SSW 1023,1 - 0,0
20.08.2019 05:00:00 14,1 13,8 4 2 W 1022,9 6 -
20.08.2019 04:00:00 14,1 13,9 4 2 W 1022,8 7 0,0
20.08.2019 03:00:00 14,2 13,7 5 3 WNW 1023,1 6 0,0
20.08.2019 02:00:00 14,7 13,9 4 2 SSE 1023,3 15 -
20.08.2019 01:00:00 14,7 13,9 4 2 S 1023,4 6 0,2
20.08.2019 00:00:00 15,1 13,8 4 2 S 1023,3 12 0,0
19.08.2019 23:00:00 15,7 13,4 5 3 SSE 1023,0 10 -
19.08.2019 22:00:00 16,4 13,1 5 3 S 1022,4 20 0,0
19.08.2019 21:00:00 16,8 12,9 8 4 SE 1022,0 20 0,0
19.08.2019 20:00:00 17,3 12,0 13 7 NE 1021,8 15 -
19.08.2019 19:00:00 17,7 11,7 15 8 NE 1021,4 20 0,0
19.08.2019 18:00:00 18,0 12,0 16 9 NE 1021,2 20 0,0
19.08.2019 17:00:00 19,1 11,9 15 8 NE 1020,7 20 -
19.08.2019 16:00:00 20,1 10,8 9 5 E 1020,6 20 0,0
19.08.2019 15:00:00 19,8 12,5 8 4 E 1021,1 20 0,0
19.08.2019 14:00:00 18,1 11,6 9 5 NE 1021,5 20 -
19.08.2019 13:00:00 17,9 12,3 8 4 E 1021,5 20 0,0
19.08.2019 12:00:00 17,1 12,6 9 5 ENE 1021,3 20 0,0
19.08.2019 11:00:00 16,6 13,9 2 1 NNE 1021,1 10 -
19.08.2019 10:00:00 15,3 13,7 2 1 SW 1021,1 19 0,0
19.08.2019 09:00:00 14,2 13,6 2 1 S 1021,2 6 0,0
19.08.2019 08:00:00 14,2 13,4 4 2 S 1021,2 10 -
19.08.2019 07:00:00 13,9 12,8 4 2 SE 1020,7 18 0,0
19.08.2019 06:00:00 14,0 12,7 4 2 SSE 1020,5 17 0,0
19.08.2019 05:00:00 14,3 13,3 4 2 S 1020,8 15 -
19.08.2019 04:00:00 14,4 13,1 5 3 S 1021,0 20 0,0
19.08.2019 03:00:00 14,4 12,9 5 3 SSE 1021,1 19 0,0
19.08.2019 02:00:00 14,8 13,5 4 2 S 1021,4 18 -
19.08.2019 01:00:00 14,8 13,7 4 2 S 1021,5 16 0,0
19.08.2019 00:00:00 14,9 13,6 5 3 S 1021,4 19 0,0
18.08.2019 23:00:00 15,1 14,1 4 2 S 1021,2 10 -
18.08.2019 22:00:00 15,3 14,3 4 2 S 1020,3 17 0,0
18.08.2019 21:00:00 15,5 14,5 5 3 S 1019,7 15 0,0
18.08.2019 20:00:00 15,5 14,4 4 2 S 1019,3 15 -
18.08.2019 19:00:00 15,6 13,6 9 5 NW 1019,2 7 0,0
18.08.2019 18:00:00 16,7 13,0 4 2 NW 1018,5 19 0,0
18.08.2019 17:00:00 17,2 15,7 8 4 S 1018,1 15 -
18.08.2019 16:00:00 16,1 14,1 5 3 NW 1018,0 14 0,0
18.08.2019 15:00:00 16,0 14,9 9 5 NNW 1017,6 20 0,2
18.08.2019 14:00:00 16,0 15,8 5 3 NW 1017,5 0,5 -
18.08.2019 13:00:00 15,9 15,6 8 4 WNW 1017,0 0,2 3,0
18.08.2019 12:00:00 16,0 15,7 4 2 WNW 1016,5 1,8 2,0
18.08.2019 11:00:00 16,1 15,5 9 5 NNW 1015,4 3,0 -
18.08.2019 10:00:00 16,8 16,5 11 6 NW 1014,8 13 0,6
18.08.2019 09:00:00 17,4 16,9 9 5 W 1013,8 1,5 0,4
18.08.2019 08:00:00 18,1 16,9 4 2 W 1012,8 15 -
18.08.2019 07:00:00 17,9 16,9 2 1 W 1011,4 15 0,0
18.08.2019 06:00:00 17,9 16,8 4 2 S 1010,9 18 0,0
18.08.2019 05:00:00 18,4 17,1 8 4 S 1010,9 17 -
18.08.2019 04:00:00 18,8 17,1 5 3 ESE 1011,1 20 0,0
18.08.2019 03:00:00 19,0 17,3 8 4 SE 1011,4 20 0,0
18.08.2019 02:00:00 19,1 17,4 5 3 W 1011,9 20 -
18.08.2019 01:00:00 20,0 17,4 4 2 WNW 1011,4 20 0,0
18.08.2019 00:00:00 21,1 17,3 8 4 SSE 1011,2 20 0,0
17.08.2019 23:00:00 22,0 17,6 4 2 S 1011,9 20 -
17.08.2019 22:00:00 23,2 17,4 8 4 SE 1012,1 20 0,0
17.08.2019 21:00:00 24,5 17,2 5 3 E 1011,8 0,3 0,0
17.08.2019 20:00:00 25,1 17,0 8 4 ENE 1011,8 20 -
17.08.2019 19:00:00 26,5 17,8 9 5 ENE 1011,8 20 0,0
17.08.2019 18:00:00 27,2 17,9 13 7 ENE 1011,9 20 0,0
17.08.2019 17:00:00 28,1 17,6 11 6 ENE 1011,9 20 -
17.08.2019 16:00:00 28,4 17,6 13 7 NE 1012,2 20 0,0
17.08.2019 15:00:00 29,1 17,0 11 6 NE 1012,6 20 0,0
17.08.2019 14:00:00 28,8 15,3 5 3 E 1013,2 20 -

tt = temperature
td = dewpoint
ff = wind speed
dd = wind direction
ppp = reduced air pressure
vv = visibility
rr = precipitation

Next stations